Meteo Giornale » Osservazioni meteo Italia » Brescia-Montichiari

ore: 02:50 - Osservazioni Meteo Brescia-Montichiari
Lat. 45° 24' N Lon. 10° 18' E Alt. 104 metri s.l.m.

molto_nuvoloso Europe/Rome

18 °C

Molto Nuvoloso

Temp. 24 Ore

18 °C

25 °C

Ovest

14.8 Km/h

Dew point 16 °C

Umidità 88 %

Visibilità  10 Km

Il sole sorge alle ore 06:06

Il sole tramonta alle ore 20:43

Data e Ora Cielo e Fenomeni T °C DP °C Um. % Pres. hPa Vis. km Vento km/h
Oggi h: 02:50 molto_nuvoloso Molto Nuvoloso 18 16 88 1007 10 O 14.8
Oggi h: 02:20 coperto_pioggia Pioggia Debole 18 16 88 1007 10 O 13
Oggi h: 01:50 coperto_pioggia Pioggia 19 16 82 1008 10 O/NO 18.5
Oggi h: 01:20 coperto_pioggia Pioggia Debole 19 16 82 1008 10 O/NO 24
Oggi h: 00:50 molto_nuvoloso Molto Nuvoloso 20 18 88 1008 10 O 18.5
Oggi h: 00:20 molto_nuvoloso Molto Nuvoloso 19 18 93 1008 10 O/SO 13
Ieri h: 23:50 molto_nuvoloso Molto Nuvoloso 20 17 82 1008 10 SO 11.1
Ieri h: 23:20 molto_nuvoloso Molto Nuvoloso 20 17 82 1008 10 O 9.3
Ieri h: 22:50 molto_nuvoloso Molto Nuvoloso 20 17 82 1008 10 E/NE 13
Ieri h: 22:20 molto_nuvoloso Molto Nuvoloso 20 17 82 1008 10 E/NE 13
Ieri h: 21:50 molto_nuvoloso Molto Nuvoloso 21 16 73 1008 10 N/NE 14.8
Ieri h: 21:20 coperto_pioggia Pioggia Debole 21 16 73 1009 10 N/NE 18.5
Ieri h: 20:50 coperto_pioggia Pioggia Debole 20 16 77 1009 10 N/NE 18.5
Ieri h: 20:20 coperto_pioggia Pioggia Debole 21 16 73 1009 10 N/NE 18.5
Ieri h: 19:50 coperto Coperto 21 16 73 1009 10 N 20.3
Ieri h: 19:20 coperto_pioggia Pioggia Debole 20 17 82 1009 10 N/NE 20.3
Ieri h: 18:50 coperto_pioggia Pioggia Debole 21 17 77 1010 10 N/NE 16.7
Ieri h: 18:20 coperto_pioggia Pioggia Debole 21 18 82 1010 10 N/NE 18.5
Ieri h: 17:50 coperto_pioggia Pioggia Debole 21 18 82 1010 10 N/NE 18.5
Ieri h: 17:20 coperto_pioggia Pioggia Debole 21 19 88 1011 10 N/NE 16.7
Ieri h: 16:50 coperto_pioggia Pioggia Debole 21 19 88 1011 10 NE 16.7
Ieri h: 16:20 coperto_pioggia Pioggia Debole 22 19 83 1011 10 NE 11.1
Ieri h: 15:50 coperto_pioggia Pioggia Debole 22 19 83 1011 10 NE 7.4
Ieri h: 15:20 coperto_pioggia Pioggia Debole 23 18 73 1011 10 N 7.4
Ieri h: 14:50 coperto_pioggia Pioggia Debole 22 19 83 1012 10 N 5.5
Ieri h: 14:20 coperto_pioggia Pioggia Debole 23 19 78 1012 10 SE 18.5
Ieri h: 13:50 coperto_pioggia Pioggia Debole 24 18 69 1012 10 SE 7.4
Ieri h: 13:20 coperto_pioggia Pioggia Debole 25 18 65 1012 10 SE 9.3
Ieri h: 12:50 molto_nuvoloso Molto Nuvoloso 25 17 61 1012 10 E/SE 11.1
Ieri h: 11:50 coperto_pioggia Pioggia Debole 25 17 61 1013 10 E/SE 9.3
Ieri h: 11:20 coperto_pioggia Pioggia Debole 25 17 61 1013 10 E 11.1
Ieri h: 10:50 coperto_pioggia Pioggia Debole 24 17 64 1013 10 NE 11.1
Ieri h: 10:20 poco_nuvoloso Poco Nuvoloso 25 17 61 1013 10 E 11.1
Ieri h: 09:50 nuvoloso Nuvoloso 24 16 60 1013 10 E 14.8
Ieri h: 09:20 sereno Sereno 23 17 68 1012 10 NE 11.1
Ieri h: 08:50 poco_nuvoloso Poco Nuvoloso 23 16 64 1012 10 NE 13
Ieri h: 08:20 sereno Sereno 22 17 73 1012 10 N/NE 11.1
Ieri h: 07:50 sereno Sereno 22 16 68 1012 10 N/NE 11.1
Ieri h: 07:20 poco_nuvoloso Poco Nuvoloso 22 16 68 1012 10 N/NE 9.3
Ieri h: 06:50 poco_nuvoloso Poco Nuvoloso 20 17 82 1012 10 N 5.5
Ieri h: 06:20 molto_nuvoloso Molto Nuvoloso 20 17 82 1012 10 N/NE 7.4
Ieri h: 05:50 molto_nuvoloso Molto Nuvoloso 21 17 77 1012 10 N/NE 7.4
Ieri h: 05:20 molto_nuvoloso Molto Nuvoloso 21 17 77 1012 10 N/NE 9.3
Ieri h: 04:50 molto_nuvoloso Molto Nuvoloso 21 17 77 1012 10 N/NE 7.4
Ieri h: 04:20 molto_nuvoloso Molto Nuvoloso 21 17 77 1012 10 N/NE 9.3
Ieri h: 03:50 coperto_pioggia Pioggia Debole 21 17 77 1012 10 N 5.5